Terminal Aerodrome Forecast
Issued by NWS Twin Cities, MN

Home | Current Version | Previous Version | Text Only | Print | Product List | Glossary Off
Versions: 1 2 3 4 5 6 7 8 9 10 11 12 13 14 15 16 17 18 19 20 21 22 23 24

000
FTUS43 KMPX 280500
TAFMSP
TAF
KMSP 280527Z 2806/2912 01007KT P6SM SCT026 BKN045 OVC060
     FM280900 36006KT P6SM BKN050
     FM281500 33009KT P6SM SCT050
     FM290100 32006KT P6SM SKC=

USA.gov is the U.S. government's official web portal to all federal, state and local government web resources and services.